Timestamp, Local Timestamp, ID, PM25, PM10, Co2, Temperature, Relative Humidity, Monitor ID, O3
2023-03-20T12:58:12Z,03/20/23 08:58,10111650,0.636,0.0,496,23.7,20.3,84,21.0
2023-03-20T12:59:12Z,03/20/23 08:59,10111653,0.623,0.01,492,23.7,20.3,84,23.0
2023-03-20T13:00:12Z,03/20/23 09:00,10111656,0.576,0.006,476,23.7,20.3,84,23.0
2023-03-20T13:01:12Z,03/20/23 09:01,10111659,0.549,0.0,480,23.7,20.2,84,21.0
2023-03-20T13:02:12Z,03/20/23 09:02,10111662,0.511,0.002,477,23.7,20.3,84,23.0
2023-03-20T13:03:12Z,03/20/23 09:03,10111665,0.667,0.002,468,23.7,20.2,84,21.0
2023-03-20T13:04:12Z,03/20/23 09:04,10111668,0.563,0.004,473,23.7,20.2,84,23.0
2023-03-20T13:05:12Z,03/20/23 09:05,10111671,0.606,0.0,458,23.8,20.1,84,23.0
2023-03-20T13:06:12Z,03/20/23 09:06,10111674,0.5519999999999999,0.0,443,23.8,20.1,84,23.0
2023-03-20T13:07:12Z,03/20/23 09:07,10111677,0.522,0.0,444,23.9,20.0,84,23.0
2023-03-20T13:08:12Z,03/20/23 09:08,10111680,0.6990000000000001,0.0,458,23.9,20.0,84,23.0
2023-03-20T13:09:12Z,03/20/23 09:09,10111683,0.6759999999999999,0.002,480,24.0,20.1,84,21.0
2023-03-20T13:10:12Z,03/20/23 09:10,10111686,0.6900000000000001,0.0,481,24.0,20.0,84,21.0
2023-03-20T13:11:12Z,03/20/23 09:11,10111689,0.658,0.002,480,24.0,20.0,84,21.0
2023-03-20T13:12:12Z,03/20/23 09:12,10111692,0.581,0.004,480,24.1,20.0,84,22.0
2023-03-20T13:13:12Z,03/20/23 09:13,10111695,0.48600000000000004,0.006,480,24.1,20.0,84,22.0
2023-03-20T13:14:12Z,03/20/23 09:14,10111698,0.645,0.0,492,24.2,19.9,84,23.0
2023-03-20T13:15:12Z,03/20/23 09:15,10111701,0.516,0.0,472,24.2,19.9,84,25.0
2023-03-20T13:16:12Z,03/20/23 09:16,10111704,0.54,0.0,458,24.2,19.9,84,26.0
2023-03-20T13:17:12Z,03/20/23 09:17,10111707,0.758,0.004,461,24.3,19.9,84,27.0
2023-03-20T13:18:12Z,03/20/23 09:18,10111710,0.576,0.0,469,24.3,19.8,84,28.0
2023-03-20T13:19:12Z,03/20/23 09:19,10111713,0.537,0.0,456,24.3,19.7,84,28.0
2023-03-20T13:20:12Z,03/20/23 09:20,10111716,0.632,0.01,460,24.3,19.6,84,28.0
2023-03-20T13:21:12Z,03/20/23 09:21,10111719,0.571,0.008,469,24.3,19.6,84,28.0
2023-03-20T13:22:12Z,03/20/23 09:22,10111722,0.5269999999999999,0.004,469,24.3,19.6,84,28.0
2023-03-20T13:23:12Z,03/20/23 09:23,10111724,0.5700000000000001,0.0,476,24.3,19.6,84,28.0
2023-03-20T13:24:12Z,03/20/23 09:24,10111726,0.577,0.002,484,24.3,19.6,84,28.0
2023-03-20T13:25:12Z,03/20/23 09:25,10111728,0.515,0.004,483,24.3,19.6,84,28.0
2023-03-20T13:26:12Z,03/20/23 09:26,10111730,0.5820000000000001,0.0,480,24.3,19.6,84,27.0
2023-03-20T13:27:12Z,03/20/23 09:27,10111732,0.5589999999999999,0.002,469,24.3,19.6,84,28.0
2023-03-20T13:28:12Z,03/20/23 09:28,10111734,0.587,0.004,484,24.3,19.6,84,28.0
2023-03-20T13:29:12Z,03/20/23 09:29,10111736,0.669,0.0,468,24.3,19.6,84,28.0
2023-03-20T13:30:12Z,03/20/23 09:30,10111738,0.714,0.006,473,24.3,19.6,84,28.0
2023-03-20T13:31:12Z,03/20/23 09:31,10111740,0.5860000000000001,0.002,473,24.3,19.5,84,28.0
2023-03-20T13:32:12Z,03/20/23 09:32,10111742,0.765,0.0,469,24.3,19.5,84,28.0
2023-03-20T13:33:12Z,03/20/23 09:33,10111744,0.592,0.002,469,24.3,19.5,84,28.0
2023-03-20T13:34:12Z,03/20/23 09:34,10111746,0.616,0.002,457,24.3,19.5,84,28.0
2023-03-20T13:35:12Z,03/20/23 09:35,10111748,0.866,0.004,461,24.3,19.5,84,28.0
2023-03-20T13:36:12Z,03/20/23 09:36,10111750,0.671,0.004,469,24.3,19.5,84,28.0
2023-03-20T13:37:12Z,03/20/23 09:37,10111752,0.516,0.006,458,24.3,19.5,84,28.0
2023-03-20T13:38:12Z,03/20/23 09:38,10111754,0.583,0.008,472,24.3,19.5,84,28.0
2023-03-20T13:39:12Z,03/20/23 09:39,10111757,0.591,0.0,464,24.3,19.4,84,28.0
2023-03-20T13:40:12Z,03/20/23 09:40,10111760,0.62,0.004,465,24.3,19.4,84,28.0
2023-03-20T13:41:12Z,03/20/23 09:41,10111763,0.588,0.0,468,24.3,19.4,84,28.0
2023-03-20T13:42:12Z,03/20/23 09:42,10111766,0.639,0.0,466,24.3,19.4,84,29.0
2023-03-20T13:43:12Z,03/20/23 09:43,10111769,0.6759999999999999,0.002,473,24.3,19.4,84,28.0
2023-03-20T13:44:12Z,03/20/23 09:44,10111772,0.708,0.0,465,24.3,19.4,84,28.0
2023-03-20T13:45:12Z,03/20/23 09:45,10111775,0.7190000000000001,0.004,473,24.3,19.4,84,28.0
2023-03-20T13:46:12Z,03/20/23 09:46,10111778,0.731,0.004,465,24.3,19.4,84,28.0
2023-03-20T13:47:12Z,03/20/23 09:47,10111781,0.631,0.002,465,24.3,19.4,84,29.0
2023-03-20T13:48:12Z,03/20/23 09:48,10111784,0.554,0.004,474,24.3,19.3,84,29.0
2023-03-20T13:49:12Z,03/20/23 09:49,10111787,0.8140000000000001,0.002,461,24.3,19.3,84,28.0
2023-03-20T13:50:12Z,03/20/23 09:50,10111790,0.712,0.002,469,24.3,19.4,84,28.0
2023-03-20T13:51:12Z,03/20/23 09:51,10111793,0.633,0.0,468,24.3,19.3,84,28.0
2023-03-20T13:52:12Z,03/20/23 09:52,10111796,0.5660000000000001,0.004,480,24.3,19.3,84,28.0
2023-03-20T13:53:12Z,03/20/23 09:53,10111799,0.633,0.0,473,24.3,19.3,84,28.0
2023-03-20T13:54:12Z,03/20/23 09:54,10111802,0.741,0.006,472,24.3,19.3,84,29.0
2023-03-20T13:55:12Z,03/20/23 09:55,10111805,0.61,0.002,473,24.3,19.3,84,27.0
2023-03-20T13:56:12Z,03/20/23 09:56,10111808,0.515,0.004,470,24.3,19.3,84,29.0
2023-03-20T13:57:12Z,03/20/23 09:57,10111811,0.6990000000000001,0.0,480,24.3,19.3,84,28.0
2023-03-20T13:58:12Z,03/20/23 09:58,10111814,0.631,0.002,464,24.3,19.3,84,28.0
2023-03-20T13:59:12Z,03/20/23 09:59,10111817,0.774,0.0,477,24.3,19.3,84,28.0
2023-03-20T14:00:12Z,03/20/23 10:00,10111820,0.706,0.002,474,24.3,19.3,84,27.0
2023-03-20T14:01:12Z,03/20/23 10:01,10111823,0.825,0.0,474,24.3,19.3,84,27.0
2023-03-20T14:02:12Z,03/20/23 10:02,10111826,0.8720000000000001,0.004,483,24.3,19.3,84,27.0
2023-03-20T14:03:12Z,03/20/23 10:03,10111829,0.8800000000000001,0.002,476,24.3,19.3,84,28.0
2023-03-20T14:04:12Z,03/20/23 10:04,10111832,0.613,0.002,483,24.3,19.3,84,28.0
2023-03-20T14:05:12Z,03/20/23 10:05,10111835,0.751,0.008,484,24.3,19.3,84,27.0
2023-03-20T14:06:12Z,03/20/23 10:06,10111838,0.673,0.002,484,24.3,19.3,84,28.0
2023-03-20T14:07:12Z,03/20/23 10:07,10111841,0.658,0.002,465,24.3,19.2,84,28.0
2023-03-20T14:08:12Z,03/20/23 10:08,10111844,0.759,0.0,481,24.3,19.3,84,27.0
2023-03-20T14:09:12Z,03/20/23 10:09,10111847,0.783,0.006,492,24.3,19.2,84,27.0
2023-03-20T14:10:12Z,03/20/23 10:10,10111850,0.783,0.0,480,24.3,19.2,84,27.0
2023-03-20T14:11:12Z,03/20/23 10:11,10111853,0.771,0.0,483,24.3,19.2,84,28.0
2023-03-20T14:12:12Z,03/20/23 10:12,10111856,0.6,0.0,488,24.3,19.2,84,27.0
2023-03-20T14:13:12Z,03/20/23 10:13,10111859,0.877,0.002,491,24.3,19.2,84,27.0
2023-03-20T14:14:12Z,03/20/23 10:14,10111862,0.8019999999999999,0.002,485,24.3,19.2,84,28.0
2023-03-20T14:15:12Z,03/20/23 10:15,10111865,0.774,0.006,492,24.3,19.2,84,27.0
2023-03-20T14:16:12Z,03/20/23 10:16,10111868,0.8109999999999999,0.002,480,24.3,19.2,84,27.0
2023-03-20T14:17:12Z,03/20/23 10:17,10111871,0.7809999999999999,0.002,489,24.3,19.1,84,27.0
2023-03-20T14:18:12Z,03/20/23 10:18,10111874,0.9359999999999999,0.0,497,24.4,19.1,84,29.0
2023-03-20T14:19:12Z,03/20/23 10:19,10111877,0.842,0.004,493,24.4,19.1,84,28.0
2023-03-20T14:20:12Z,03/20/23 10:20,10111880,0.8310000000000001,0.0,494,24.4,19.1,84,28.0
2023-03-20T14:21:12Z,03/20/23 10:21,10111883,0.678,0.006,482,24.4,19.1,84,29.0
2023-03-20T14:22:12Z,03/20/23 10:22,10111886,1.044,0.0,489,24.4,19.1,84,29.0
2023-03-20T14:23:12Z,03/20/23 10:23,10111889,0.8480000000000001,0.004,482,24.4,19.1,84,29.0
2023-03-20T14:24:12Z,03/20/23 10:24,10111892,0.837,0.0,485,24.4,19.1,84,28.0
2023-03-20T14:25:12Z,03/20/23 10:25,10111895,0.8800000000000001,0.002,477,24.4,19.0,84,28.0
2023-03-20T14:26:12Z,03/20/23 10:26,10111898,0.747,0.0,489,24.4,19.1,84,27.0
2023-03-20T14:27:12Z,03/20/23 10:27,10111901,0.9550000000000001,0.002,490,24.5,19.1,84,27.0
2023-03-20T14:28:12Z,03/20/23 10:28,10111904,0.901,0.008,494,24.5,19.1,84,25.0
2023-03-20T14:29:12Z,03/20/23 10:29,10111907,0.796,0.002,501,24.5,19.1,84,25.0
2023-03-20T14:30:12Z,03/20/23 10:30,10111910,0.873,0.006,539,24.5,19.1,84,25.0
2023-03-20T14:31:12Z,03/20/23 10:31,10111913,1.057,0.002,501,24.4,19.0,84,26.0
2023-03-20T14:32:12Z,03/20/23 10:32,10111916,0.905,0.004,497,24.4,19.1,84,28.0
2023-03-20T14:33:12Z,03/20/23 10:33,10111919,0.8550000000000001,0.006,528,24.4,19.1,84,26.0
2023-03-20T14:34:12Z,03/20/23 10:34,10111922,0.959,0.004,509,24.4,19.0,84,25.0
2023-03-20T14:35:12Z,03/20/23 10:35,10111925,0.9199999999999999,0.004,481,24.4,18.9,84,27.0
2023-03-20T14:36:12Z,03/20/23 10:36,10111928,1.014,0.006,477,24.4,19.0,84,28.0
2023-03-20T14:37:12Z,03/20/23 10:37,10111931,0.9179999999999999,0.0,486,24.3,19.0,84,28.0
2023-03-20T14:38:12Z,03/20/23 10:38,10111934,0.8880000000000001,0.006,480,24.3,19.0,84,27.0
2023-03-20T14:39:12Z,03/20/23 10:39,10111937,0.808,0.002,500,24.3,19.0,84,26.0
2023-03-20T14:40:12Z,03/20/23 10:40,10111940,0.858,0.0,542,24.3,19.1,84,26.0
2023-03-20T14:41:12Z,03/20/23 10:41,10111943,0.991,0.002,526,24.3,19.1,84,26.0
2023-03-20T14:42:12Z,03/20/23 10:42,10111946,0.9550000000000001,0.002,512,24.3,19.1,84,25.0
2023-03-20T14:43:12Z,03/20/23 10:43,10111949,0.99,0.0,503,24.3,19.1,84,26.0
2023-03-20T14:44:12Z,03/20/23 10:44,10111952,0.9810000000000001,0.006,487,24.3,19.0,84,27.0
2023-03-20T14:45:12Z,03/20/23 10:45,10111955,0.805,0.002,582,24.3,19.1,84,26.0
2023-03-20T14:46:12Z,03/20/23 10:46,10111958,1.01,0.004,552,24.3,19.0,84,20.0
2023-03-20T14:47:12Z,03/20/23 10:47,10111961,0.893,0.004,509,24.3,19.0,84,25.0
2023-03-20T14:48:12Z,03/20/23 10:48,10111964,0.9189999999999999,0.008,499,24.3,19.0,84,26.0
2023-03-20T14:49:12Z,03/20/23 10:49,10111967,0.905,0.004,481,24.3,19.0,84,26.0
2023-03-20T14:50:12Z,03/20/23 10:50,10111970,1.026,0.0,484,24.3,19.0,84,26.0
2023-03-20T14:51:12Z,03/20/23 10:51,10111973,0.843,0.0,480,24.3,19.0,84,26.0
2023-03-20T14:52:12Z,03/20/23 10:52,10111976,0.9410000000000001,0.004,473,24.3,19.0,84,25.0
2023-03-20T14:53:12Z,03/20/23 10:53,10111979,0.986,0.004,479,24.3,19.0,84,26.0
2023-03-20T14:54:12Z,03/20/23 10:54,10111982,0.976,0.002,484,24.3,19.0,84,24.0
2023-03-20T14:55:12Z,03/20/23 10:55,10111985,1.043,0.004,504,24.3,19.0,84,27.0
2023-03-20T14:56:12Z,03/20/23 10:56,10111988,0.953,0.004,522,24.3,19.0,84,26.0
2023-03-20T14:57:12Z,03/20/23 10:57,10111991,0.8710000000000001,0.002,751,24.3,19.3,84,23.0
2023-03-20T14:58:12Z,03/20/23 10:58,10111994,0.922,0.002,648,24.3,19.0,84,23.0
2023-03-20T14:59:12Z,03/20/23 10:59,10111997,0.844,0.002,545,24.3,19.0,84,25.0
2023-03-20T15:00:12Z,03/20/23 11:00,10112000,0.9189999999999999,0.008,499,24.3,18.9,84,25.0
2023-03-20T15:01:12Z,03/20/23 11:01,10112003,0.968,0.004,507,24.3,18.9,84,25.0
2023-03-20T15:02:12Z,03/20/23 11:02,10112006,0.943,0.002,488,24.3,18.8,84,25.0
2023-03-20T15:03:12Z,03/20/23 11:03,10112009,0.9630000000000001,0.006,484,24.3,18.8,84,26.0
2023-03-20T15:04:12Z,03/20/23 11:04,10112012,0.967,0.002,484,24.3,18.8,84,23.0
2023-03-20T15:05:12Z,03/20/23 11:05,10112015,0.9400000000000001,0.002,488,24.3,18.8,84,23.0
2023-03-20T15:06:12Z,03/20/23 11:06,10112018,1.043,0.004,483,24.2,18.8,84,21.0
2023-03-20T15:07:12Z,03/20/23 11:07,10112021,0.9970000000000001,0.002,492,24.2,18.8,84,22.0
2023-03-20T15:08:12Z,03/20/23 11:08,10112024,1.016,0.01,465,24.2,18.8,84,22.0
2023-03-20T15:09:12Z,03/20/23 11:09,10112027,0.8859999999999999,0.002,477,24.2,18.8,84,25.0
2023-03-20T15:10:12Z,03/20/23 11:10,10112030,0.819,0.0,464,24.2,18.7,84,25.0
2023-03-20T15:11:12Z,03/20/23 11:11,10112033,0.8789999999999999,0.0,458,24.2,18.7,84,25.0
2023-03-20T15:12:12Z,03/20/23 11:12,10112036,0.897,0.006,461,24.2,18.7,84,26.0
2023-03-20T15:13:12Z,03/20/23 11:13,10112039,0.9970000000000001,0.002,466,24.2,18.7,84,26.0
2023-03-20T15:14:12Z,03/20/23 11:14,10112042,0.9029999999999999,0.0,452,24.2,18.7,84,27.0
2023-03-20T15:15:12Z,03/20/23 11:15,10112045,0.9490000000000001,0.002,461,24.2,18.7,84,27.0
2023-03-20T15:16:12Z,03/20/23 11:16,10112048,0.819,0.006,476,24.3,18.7,84,26.0
2023-03-20T15:17:12Z,03/20/23 11:17,10112051,0.9349999999999999,0.004,477,24.3,18.7,84,27.0
2023-03-20T15:18:12Z,03/20/23 11:18,10112054,1.0210000000000001,0.002,479,24.3,18.8,84,27.0
2023-03-20T15:19:12Z,03/20/23 11:19,10112057,0.899,0.004,477,24.3,18.8,84,27.0
2023-03-20T15:20:12Z,03/20/23 11:20,10112060,0.952,0.002,489,24.3,18.8,84,27.0
2023-03-20T15:21:12Z,03/20/23 11:21,10112063,0.8789999999999999,0.006,497,24.3,18.8,84,27.0
2023-03-20T15:22:12Z,03/20/23 11:22,10112066,0.933,0.0,492,24.3,18.8,84,27.0
2023-03-20T15:23:12Z,03/20/23 11:23,10112069,1.004,0.004,488,24.3,18.8,84,27.0
2023-03-20T15:24:12Z,03/20/23 11:24,10112072,0.99,0.0,488,24.3,18.8,84,27.0
2023-03-20T15:25:12Z,03/20/23 11:25,10112075,0.953,0.004,484,24.3,18.7,84,27.0
2023-03-20T15:26:12Z,03/20/23 11:26,10112078,0.782,0.004,477,24.3,18.6,84,28.0
2023-03-20T15:27:12Z,03/20/23 11:27,10112081,0.908,0.004,484,24.3,18.7,84,28.0
2023-03-20T15:28:12Z,03/20/23 11:28,10112084,0.799,0.002,488,24.3,18.6,84,28.0
2023-03-20T15:29:12Z,03/20/23 11:29,10112087,1.028,0.004,481,24.3,18.6,84,29.0
2023-03-20T15:30:12Z,03/20/23 11:30,10112090,0.9480000000000001,0.006,485,24.3,18.5,84,30.0
2023-03-20T15:31:12Z,03/20/23 11:31,10112093,0.9869999999999999,0.0,499,24.2,18.6,84,30.0
2023-03-20T15:32:12Z,03/20/23 11:32,10112096,0.9099999999999999,0.002,493,24.3,18.6,84,30.0
2023-03-20T15:33:12Z,03/20/23 11:33,10112099,1.0710000000000002,0.0,480,24.3,18.6,84,29.0
2023-03-20T15:34:12Z,03/20/23 11:34,10112102,1.011,0.0,487,24.3,18.5,84,29.0
2023-03-20T15:35:12Z,03/20/23 11:35,10112105,0.8300000000000001,0.004,481,24.3,18.5,84,29.0
2023-03-20T15:36:12Z,03/20/23 11:36,10112108,0.849,0.0,495,24.3,18.5,84,29.0
2023-03-20T15:37:12Z,03/20/23 11:37,10112111,0.778,0.008,489,24.3,18.5,84,30.0
2023-03-20T15:38:12Z,03/20/23 11:38,10112114,0.79,0.002,493,24.3,18.5,84,29.0
2023-03-20T15:39:12Z,03/20/23 11:39,10112117,0.8640000000000001,0.0,481,24.3,18.5,84,29.0
2023-03-20T15:40:12Z,03/20/23 11:40,10112119,0.901,0.002,489,24.3,18.5,84,30.0
2023-03-20T15:41:12Z,03/20/23 11:41,10112121,0.8380000000000001,0.008,516,24.3,18.6,84,29.0
2023-03-20T15:42:12Z,03/20/23 11:42,10112122,0.9640000000000001,0.002,507,24.3,18.6,84,30.0
2023-03-20T15:43:12Z,03/20/23 11:43,10112123,0.752,0.004,501,24.3,18.6,84,30.0
2023-03-20T15:44:13Z,03/20/23 11:44,10112125,0.8390000000000001,0.004,503,24.3,18.6,84,30.0
2023-03-20T15:45:12Z,03/20/23 11:45,10112127,1.116,0.0,507,24.3,18.6,84,30.0
2023-03-20T15:46:12Z,03/20/23 11:46,10112129,0.95,0.004,499,24.3,18.6,84,29.0
2023-03-20T15:47:12Z,03/20/23 11:47,10112131,0.817,0.002,487,24.3,18.5,84,30.0
2023-03-20T15:48:12Z,03/20/23 11:48,10112133,0.944,0.004,492,24.3,18.5,84,30.0
2023-03-20T15:49:12Z,03/20/23 11:49,10112135,0.9199999999999999,0.004,499,24.3,18.5,84,30.0
2023-03-20T15:50:12Z,03/20/23 11:50,10112137,0.8880000000000001,0.0,492,24.3,18.5,84,30.0
2023-03-20T15:51:13Z,03/20/23 11:51,10112139,0.875,0.004,495,24.3,18.5,84,30.0
2023-03-20T15:52:12Z,03/20/23 11:52,10112141,0.891,0.006,492,24.3,18.5,84,30.0
2023-03-20T15:53:12Z,03/20/23 11:53,10112144,0.825,0.0,490,24.3,18.5,84,30.0
2023-03-20T15:54:12Z,03/20/23 11:54,10112147,0.8800000000000001,0.002,489,24.4,18.5,84,30.0
2023-03-20T15:55:12Z,03/20/23 11:55,10112150,0.85,0.002,481,24.4,18.5,84,29.0
2023-03-20T15:56:12Z,03/20/23 11:56,10112153,0.8619999999999999,0.002,481,24.4,18.5,84,29.0
2023-03-20T15:57:12Z,03/20/23 11:57,10112156,0.8310000000000001,0.006,481,24.4,18.5,84,29.0
2023-03-20T15:58:13Z,03/20/23 11:58,10112159,0.967,0.002,482,24.4,18.5,84,29.0
2023-03-20T15:59:12Z,03/20/23 11:59,10112162,0.961,0.002,488,24.4,18.5,84,29.0
2023-03-20T16:00:12Z,03/20/23 12:00,10112165,0.828,0.006,477,24.4,18.5,84,29.0
2023-03-20T16:01:12Z,03/20/23 12:01,10112168,0.8109999999999999,0.002,477,24.4,18.5,84,30.0
2023-03-20T16:02:12Z,03/20/23 12:02,10112171,0.759,0.006,482,24.4,18.5,84,30.0
2023-03-20T16:03:12Z,03/20/23 12:03,10112174,0.901,0.008,475,24.4,18.4,84,30.0
2023-03-20T16:04:12Z,03/20/23 12:04,10112177,0.742,0.002,482,24.4,18.4,84,30.0
2023-03-20T16:05:13Z,03/20/23 12:05,10112180,0.9880000000000001,0.002,470,24.4,18.4,84,31.0
2023-03-20T16:06:12Z,03/20/23 12:06,10112183,0.726,0.006,475,24.4,18.3,84,30.0
2023-03-20T16:07:12Z,03/20/23 12:07,10112186,0.851,0.004,470,24.4,18.3,84,31.0
2023-03-20T16:08:12Z,03/20/23 12:08,10112189,0.9460000000000001,0.002,474,24.4,18.3,84,30.0
2023-03-20T16:09:13Z,03/20/23 12:09,10112192,0.851,0.004,489,24.4,18.3,84,30.0
2023-03-20T16:10:13Z,03/20/23 12:10,10112195,0.945,0.006,482,24.4,18.3,84,31.0
2023-03-20T16:11:13Z,03/20/23 12:11,10112198,0.9359999999999999,0.0,490,24.4,18.3,84,31.0
2023-03-20T16:12:13Z,03/20/23 12:12,10112201,0.783,0.006,482,24.4,18.3,84,31.0
2023-03-20T16:13:13Z,03/20/23 12:13,10112204,0.8160000000000001,0.0,496,24.4,18.3,84,30.0
2023-03-20T16:14:13Z,03/20/23 12:14,10112207,0.9730000000000001,0.002,477,24.4,18.3,84,30.0
2023-03-20T16:15:13Z,03/20/23 12:15,10112210,0.865,0.008,474,24.5,18.3,84,31.0
2023-03-20T16:16:13Z,03/20/23 12:16,10112213,0.905,0.01,488,24.5,18.3,84,31.0
2023-03-20T16:17:13Z,03/20/23 12:17,10112216,0.905,0.004,470,24.5,18.3,84,31.0
2023-03-20T16:18:13Z,03/20/23 12:18,10112219,0.837,0.0,465,24.4,18.2,84,31.0
2023-03-20T16:19:13Z,03/20/23 12:19,10112222,0.8160000000000001,0.0,463,24.4,18.2,84,30.0
2023-03-20T16:20:13Z,03/20/23 12:20,10112225,0.8550000000000001,0.006,480,24.4,18.2,84,31.0
2023-03-20T16:21:13Z,03/20/23 12:21,10112228,0.898,0.002,481,24.5,18.2,84,31.0
2023-03-20T16:22:13Z,03/20/23 12:22,10112231,0.991,0.002,485,24.5,18.3,84,31.0
2023-03-20T16:23:13Z,03/20/23 12:23,10112234,0.97,0.008,489,24.5,18.2,84,32.0
2023-03-20T16:24:13Z,03/20/23 12:24,10112237,0.8230000000000001,0.002,490,24.5,18.3,84,31.0
2023-03-20T16:25:13Z,03/20/23 12:25,10112240,0.8119999999999999,0.004,486,24.5,18.3,84,30.0
2023-03-20T16:26:13Z,03/20/23 12:26,10112243,0.915,0.0,497,24.5,18.3,84,31.0
2023-03-20T16:27:13Z,03/20/23 12:27,10112246,0.933,0.0,493,24.5,18.3,84,30.0
2023-03-20T16:28:13Z,03/20/23 12:28,10112249,0.827,0.004,504,24.5,18.3,84,30.0
2023-03-20T16:29:13Z,03/20/23 12:29,10112252,0.873,0.006,489,24.5,18.3,84,31.0
2023-03-20T16:30:13Z,03/20/23 12:30,10112255,0.775,0.002,504,24.5,18.3,84,31.0
2023-03-20T16:31:13Z,03/20/23 12:31,10112258,0.8320000000000001,0.002,504,24.6,18.3,84,30.0
2023-03-20T16:32:13Z,03/20/23 12:32,10112261,0.9390000000000001,0.0,500,24.6,18.2,84,31.0
2023-03-20T16:33:13Z,03/20/23 12:33,10112264,0.8789999999999999,0.006,500,24.6,18.2,84,31.0
2023-03-20T16:34:13Z,03/20/23 12:34,10112267,0.792,0.006,504,24.6,18.2,84,31.0
2023-03-20T16:35:13Z,03/20/23 12:35,10112270,0.662,0.01,515,24.6,18.2,84,31.0
2023-03-20T16:36:13Z,03/20/23 12:36,10112273,0.806,0.004,501,24.6,18.2,84,31.0
2023-03-20T16:37:13Z,03/20/23 12:37,10112276,0.842,0.004,505,24.6,18.2,84,31.0
2023-03-20T16:38:13Z,03/20/23 12:38,10112279,0.819,0.0,514,24.7,18.2,84,32.0
2023-03-20T16:39:13Z,03/20/23 12:39,10112282,0.844,0.002,500,24.7,18.2,84,31.0
2023-03-20T16:40:13Z,03/20/23 12:40,10112285,0.908,0.004,509,24.7,18.2,84,31.0
2023-03-20T16:41:13Z,03/20/23 12:41,10112288,0.833,0.004,498,24.7,18.2,84,31.0
2023-03-20T16:42:13Z,03/20/23 12:42,10112291,0.907,0.008,512,24.7,18.2,84,30.0
2023-03-20T16:43:13Z,03/20/23 12:43,10112294,0.945,0.0,504,24.7,18.2,84,31.0
2023-03-20T16:44:13Z,03/20/23 12:44,10112297,0.9460000000000001,0.008,511,24.7,18.2,84,30.0
2023-03-20T16:45:13Z,03/20/23 12:45,10112300,0.736,0.002,500,24.7,18.2,84,31.0
2023-03-20T16:46:13Z,03/20/23 12:46,10112303,0.865,0.002,504,24.8,18.2,84,30.0
2023-03-20T16:47:13Z,03/20/23 12:47,10112306,0.8130000000000001,0.0,508,24.8,18.2,84,30.0
2023-03-20T16:48:13Z,03/20/23 12:48,10112309,0.845,0.004,515,24.8,18.2,84,30.0
2023-03-20T16:49:13Z,03/20/23 12:49,10112312,0.8109999999999999,0.002,508,24.8,18.2,84,30.0
2023-03-20T16:50:13Z,03/20/23 12:50,10112315,0.77,0.004,518,24.8,18.2,84,30.0
2023-03-20T16:51:13Z,03/20/23 12:51,10112318,0.908,0.004,508,24.8,18.4,84,27.0
2023-03-20T16:52:13Z,03/20/23 12:52,10112321,0.849,0.0,515,24.8,18.3,84,30.0
2023-03-20T16:53:13Z,03/20/23 12:53,10112324,0.729,0.006,502,24.8,18.2,84,30.0
2023-03-20T16:54:13Z,03/20/23 12:54,10112327,0.8029999999999999,0.004,489,24.8,18.2,84,30.0
2023-03-20T16:55:13Z,03/20/23 12:55,10112330,0.769,0.002,497,24.8,18.2,84,31.0
2023-03-20T16:56:13Z,03/20/23 12:56,10112333,0.773,0.01,508,24.8,18.2,84,30.0
2023-03-20T16:57:13Z,03/20/23 12:57,10112336,0.96,0.0,508,24.8,18.2,84,30.0
2023-03-20T16:58:13Z,03/20/23 12:58,10112339,0.796,0.002,497,24.8,18.1,84,30.0
2023-03-20T16:59:13Z,03/20/23 12:59,10112342,0.714,0.006,505,24.8,18.2,84,31.0
2023-03-20T17:00:13Z,03/20/23 13:00,10112345,0.763,0.002,504,24.8,18.1,84,30.0
2023-03-20T17:01:13Z,03/20/23 13:01,10112348,0.7929999999999999,0.002,497,24.8,18.1,84,31.0
2023-03-20T17:02:13Z,03/20/23 13:02,10112351,0.633,0.0,498,24.8,18.1,84,31.0
2023-03-20T17:03:13Z,03/20/23 13:03,10112354,0.736,0.002,496,24.8,18.1,84,31.0
2023-03-20T17:04:13Z,03/20/23 13:04,10112357,0.741,0.0,515,24.8,18.1,84,31.0
2023-03-20T17:05:13Z,03/20/23 13:05,10112360,0.752,0.004,501,24.8,18.0,84,32.0
2023-03-20T17:06:13Z,03/20/23 13:06,10112363,0.739,0.002,508,24.8,18.0,84,31.0
2023-03-20T17:07:13Z,03/20/23 13:07,10112366,0.766,0.002,504,24.8,18.0,84,31.0
2023-03-20T17:08:13Z,03/20/23 13:08,10112369,0.747,0.0,504,24.8,18.0,84,31.0
2023-03-20T17:09:13Z,03/20/23 13:09,10112372,0.842,0.004,498,24.8,18.0,84,31.0
2023-03-20T17:10:13Z,03/20/23 13:10,10112375,0.8029999999999999,0.004,519,24.8,18.0,84,31.0
2023-03-20T17:11:13Z,03/20/23 13:11,10112378,0.6679999999999999,0.004,508,24.8,18.0,84,31.0
2023-03-20T17:12:13Z,03/20/23 13:12,10112381,0.748,0.002,508,24.8,18.0,84,32.0
2023-03-20T17:13:13Z,03/20/23 13:13,10112384,0.738,0.0,507,24.8,18.0,84,32.0
2023-03-20T17:14:13Z,03/20/23 13:14,10112387,0.8480000000000001,0.004,516,24.8,18.0,84,32.0
2023-03-20T17:15:13Z,03/20/23 13:15,10112390,0.743,0.004,524,24.8,17.9,84,32.0
2023-03-20T17:16:13Z,03/20/23 13:16,10112393,0.655,0.002,505,24.8,17.9,84,33.0
2023-03-20T17:17:13Z,03/20/23 13:17,10112396,0.75,0.0,496,24.9,17.9,84,32.0
2023-03-20T17:18:13Z,03/20/23 13:18,10112399,0.9560000000000001,0.004,516,24.9,17.9,84,32.0
2023-03-20T17:19:13Z,03/20/23 13:19,10112402,0.736,0.002,501,24.9,17.9,84,32.0
2023-03-20T17:20:13Z,03/20/23 13:20,10112405,0.807,0.0,501,24.9,17.9,84,32.0
2023-03-20T17:21:13Z,03/20/23 13:21,10112408,0.704,0.004,509,24.9,17.9,84,32.0
2023-03-20T17:22:13Z,03/20/23 13:22,10112411,0.639,0.0,504,24.9,17.9,84,32.0
2023-03-20T17:23:13Z,03/20/23 13:23,10112414,0.714,0.0,500,24.9,17.9,84,32.0
2023-03-20T17:24:13Z,03/20/23 13:24,10112417,0.7929999999999999,0.002,505,24.9,17.9,84,32.0
2023-03-20T17:25:13Z,03/20/23 13:25,10112420,0.769,0.008,500,24.9,17.9,84,32.0
2023-03-20T17:26:13Z,03/20/23 13:26,10112423,0.625,0.002,500,24.9,17.9,84,33.0
2023-03-20T17:27:13Z,03/20/23 13:27,10112426,0.5740000000000001,0.002,500,24.9,17.8,84,33.0
2023-03-20T17:28:13Z,03/20/23 13:28,10112429,0.712,0.002,509,24.9,17.8,84,32.0
2023-03-20T17:29:13Z,03/20/23 13:29,10112432,0.6759999999999999,0.002,509,24.9,17.8,84,32.0
2023-03-20T17:30:13Z,03/20/23 13:30,10112435,0.6799999999999999,0.004,516,24.9,17.8,84,31.0
2023-03-20T17:31:13Z,03/20/23 13:31,10112438,0.7070000000000001,0.004,501,24.9,17.7,84,32.0
2023-03-20T17:32:13Z,03/20/23 13:32,10112441,0.661,0.002,489,24.9,17.6,84,33.0
2023-03-20T17:33:13Z,03/20/23 13:33,10112444,0.651,0.0,494,24.9,17.6,84,32.0
2023-03-20T17:34:13Z,03/20/23 13:34,10112447,0.713,0.004,470,24.9,17.5,84,32.0
2023-03-20T17:35:13Z,03/20/23 13:35,10112450,0.687,0.0,459,24.9,17.5,84,32.0
2023-03-20T17:36:13Z,03/20/23 13:36,10112453,0.634,0.002,455,24.8,17.5,84,33.0
2023-03-20T17:37:13Z,03/20/23 13:37,10112456,0.658,0.002,461,24.8,17.4,84,33.0
2023-03-20T17:38:13Z,03/20/23 13:38,10112459,0.588,0.0,462,24.8,17.4,84,32.0
2023-03-20T17:39:13Z,03/20/23 13:39,10112462,0.611,0.004,474,24.8,17.3,84,33.0
2023-03-20T17:40:13Z,03/20/23 13:40,10112465,0.67,0.002,466,24.8,17.3,84,34.0
2023-03-20T17:41:13Z,03/20/23 13:41,10112468,0.662,0.004,467,24.8,17.3,84,34.0
2023-03-20T17:42:13Z,03/20/23 13:42,10112471,0.627,0.0,478,24.8,17.3,84,33.0
2023-03-20T17:43:13Z,03/20/23 13:43,10112474,0.683,0.004,470,24.8,17.3,84,34.0